Flag for United Kingdom

Past Weather in Gillingham, England, United Kingdom — Yesterday and Last 2 Weeks

Now
66 °F

Fog.


Feels Like: 66 °F
Forecast: 69 / 63 °F
Wind: 5 mph from West

Location: Yeovilton
Current Time: Aug 14, 2020 at 4:08:39 am
Latest Report: Aug 14, 2020 at 2:50 am
Visibility: 2 mi
Pressure29.89 "Hg
Humidity: 94%
Dew Point: 64 °F
Location of GillinghamLocation

Past Weather in Gillingham — Graph

°F

Gillingham Temperature Yesterday

Maximum temperature yesterday: 75 °F (at 11:21 am)
Minimum temperature yesterday: 64 °F (at 5:50 am)
Average temperature yesterday: 71 °F

High & Low Weather Summary for the Past Weeks

 TemperatureHumidityPressure
High91 °F (Aug 12, 2:21 pm)100% (Jul 30, 4:50 am)30.12 "Hg (Jul 30, 4:50 am)
Low43 °F (Aug 4, 4:50 am)28% (Jul 30, 4:50 pm)29.80 "Hg (Jul 31, 6:50 am)
Average68 °F74%29.97 "Hg
* Reported Jul 30 1:50 am — Aug 14 1:50 am, Gillingham. Weather by CustomWeather, © 2020

Note: Actual official high and low records may vary slightly from our data, if they occured in-between our weather recording intervals... More about our weather records

Gillingham Weather History for the Previous 24 Hours

Scroll right to see more
 ConditionsComfort  
Time TempWeatherWind HumidityBarometerVisibility
1:50 am
Fri, Aug 14
66 °FPassing clouds.3 mph94%29.92 "Hg3 mi
12:50 am66 °FLight rain. Passing clouds.2 mph94%29.92 "Hg3 mi
11:50 pm
Thu, Aug 13
68 °FPassing clouds.5 mph94%29.92 "Hg4 mi
10:50 pm70 °FPassing clouds.6 mph88%29.92 "Hg4 mi
9:50 pm70 °FPassing clouds.3 mph94%29.92 "Hg4 mi
8:50 pm70 °FRain. Passing clouds.5 mph94%29.89 "Hg3 mi
7:50 pm70 °FPartly sunny.5 mph94%29.89 "HgN/A
7:20 pm72 °FBroken clouds.3 mph83%29.89 "Hg5 mi
6:50 pm72 °FBroken clouds.2 mph83%29.89 "Hg5 mi
6:20 pm70 °FBroken clouds.3 mph88%29.89 "Hg5 mi
5:50 pm70 °FBroken clouds.2 mph83%29.89 "Hg5 mi
4:50 pm68 °FThunderstorms. Broken clouds.8 mph88%29.89 "Hg3 mi
4:30 pm72 °FThunderstorms. Broken clouds.9 mph83%29.89 "Hg2 mi
4:10 pm75 °FSprinkles. Broken clouds.5 mph74%29.89 "Hg3 mi
3:50 pm75 °FScattered showers. Broken clouds.5 mph74%29.86 "Hg3 mi
3:22 pm75 °FScattered showers. Broken clouds.6 mph74%29.89 "Hg3 mi
2:50 pm75 °FPartly sunny.8 mph74%29.89 "Hg5 mi
2:21 pm75 °FScattered showers. Broken clouds.10 mph74%29.89 "Hg3 mi
12:50 pm75 °FPartly sunny.7 mph74%29.89 "Hg4 mi
12:20 pm73 °FLight rain. Partly sunny.7 mph78%29.89 "Hg4 mi
11:50 am75 °FPartly sunny.5 mph74%29.89 "Hg5 mi
11:21 am75 °FPartly sunny.5 mph74%29.89 "Hg5 mi
10:50 am73 °FPartly sunny.5 mph78%29.89 "Hg5 mi
10:19 am73 °FPartly sunny.5 mph78%29.89 "Hg5 mi
9:50 am73 °FPartly sunny.3 mph78%29.89 "Hg5 mi
8:50 am70 °FPartly sunny.5 mph88%29.89 "HgN/A
7:50 am68 °FPartly sunny.No wind88%29.86 "HgN/A
6:50 am64 °FPartly sunny.3 mph94%29.86 "Hg6 mi
5:50 am64 °FPassing clouds.1 mph94%29.86 "Hg6 mi
4:50 am68 °FPartly cloudy.3 mph83%29.86 "HgN/A
Weather by CustomWeather, © 2020

See weather overview